Погода в Промышленной

Россия / Кемеровская область (Кузбасс)     54°54′59″N   85°38′15″E
темп.,
°C
ветер,
м/с
пор.,
м/с
влажн.,
%
обл.,
%
осадки,
мм/ч
давл.,
гПа
погр.,
м
14 апреля, ср
ср1401:000зюз61298100 0.3 1031509
04:00+1з61094100 0.4 1030599
07:00+1зюз51092100 0.4 1031431
10:00+1зюз612100100 0.0 1030534
13:00+2юз815100100 0.4 1027719
16:00+2зюз81799100 3.5 1025790
19:00+3з81692100 3.6 1023797
22:00+2з61396100 0.1 1024531
15 апреля, чт
чт1501:00+1з51098100 0.1 1025309
04:00+1з3899100 0.0 1025218
07:00+1зюз25100100 0.0 1027127
10:00+1юз23100100 0.0 1027123
13:00+3ююз24100100 0.0 1027191
16:00+5ююз3591100 0.0 1025448
19:00+3юз3796100 0.0 1024180
22:00+2ююз3899100 0.0 1024264
16 апреля, пт
пт1601:00+2ююз4899100 0.1 1022254
04:00+2ююз3999100 0.0 1021288
07:00+3ююз5129799 0.0 1020350
10:00+5юз61294100 0.0 1018481
13:00+9юз7128585 0.0 1016698
16:00+12юз8148086 0.0 10131069
19:00+12зюз7147997 0.1 1012640
22:00+3с81392100 0.1 1015329
17 апреля, сб
сб1701:00+1с5997100 0.5 1017504
04:000с5997100 0.6 1018659
07:00−3ссв6980100 0.8 1021596
10:00−2св6866100 0.0 1021762
13:00+1св565451 0.0 10191058
16:00+2св554976 0.0 10181135
19:00+1св33545 0.0 1016932
22:00−1с22725 0.0 101529
18 апреля, вс
вс1801:00−1ююз127167 0.0 101358
04:00−1юз3774100 0.0 1012287
07:000юз51075100 0.0 1011596
10:00+2з81271100 0.0 10121244
13:00+4з7947100 0.1 10131606
16:00+4зсз5644100 0.0 10141441
19:00+3зсз1251100 0.0 101474
22:00+1вюв3359100 0.0 101444